Theta_e
309 309 309 309 310 310 310 309 309 309 311 312 312 312 311 311 309 310 313 309 311 308 303 307 308 308 309 309 313 311 312 311 311 310 311 316 318 317 316 319 320 320 328 329 339
306 305 305 307 308 307 307 308 309 309 309 311 312 312 311 309 311 313 311 310 306 304 304 309 308 308 308 311 312 312 309 312 311 314 315 316 316 317 318 318 320 330 335 335 338
303 303 302 299 301 301 301 303 304 306 309 309 311 312 311 309 313 311 309 308 306 304 304 308 308 307 309 310 312 311 312 311 313 314 313 314 314 313 314 316 316 332 336 335 337
299 295 296 296 295 295 295 296 299 302 306 308 310 312 310 312 315 307 305 303 303 303 305 307 307 308 308 310 311 313 311 310 312 313 313 313 310 313 313 314 312 322 335 336 337
298 298 295 295 295 296 297 299 305 306 307 309 309 311 310 311 312 308 305 304 304 305 306 307 308 308 308 308 310 311 312 311 311 311 311 310 310 311 310 310 309 310 318 333 336
300 296 296 294 298 299 299 299 304 307 309 310 310 310 311 312 306 305 305 305 304 305 306 306 308 308 307 308 309 310 310 308 308 310 310 311 310 309 310 309 309 309 314 322 331
300 296 295 293 299 296 297 298 302 310 311 309 308 308 307 310 306 305 305 304 304 304 305 307 307 308 307 309 308 309 309 307 307 308 310 309 309 308 310 310 309 308 309 314 320
299 297 296 293 297 295 296 297 305 310 309 307 306 307 308 307 306 305 304 304 304 304 305 306 307 307 308 307 307 307 308 308 310 308 309 309 313 310 309 308 308 307 307 307 308
296 295 294 293 296 296 295 300 307 308 302 307 307 306 308 306 306 304 303 303 304 305 305 305 306 306 305 306 306 307 309 309 311 309 307 307 309 308 307 306 307 305 304 305 305
297 294 294 294 299 300 295 300 307 306 300 306 304 303 307 306 306 304 303 302 304 304 305 304 304 304 303 304 310 308 307 307 310 309 306 305 305 306 305 306 306 305 303 302 302
297 296 295 296 300 300 297 301 302 300 303 303 303 304 305 306 306 305 303 303 303 304 304 304 303 303 304 305 307 309 308 308 310 308 307 306 307 307 306 304 303 303 303 303 303
293 294 296 296 297 300 299 301 300 303 304 301 303 303 304 304 308 306 303 301 302 303 303 304 304 303 303 303 305 306 306 308 307 309 306 307 307 307 306 305 306 306 304 303 304
295 293 294 296 298 296 297 297 301 303 302 302 305 303 303 304 306 304 302 302 303 303 304 304 305 306 305 305 306 305 305 306 307 309 307 307 310 309 309 308 306 306 306 305 304
297 293 293 294 295 296 297 298 303 303 298 303 305 303 300 302 305 303 301 302 305 307 305 306 306 305 307 308 306 307 306 308 308 310 311 309 314 311 310 310 308 309 307 307 305
295 296 293 296 294 294 293 298 304 301 290 298 304 301 297 299 302 303 301 302 306 307 306 308 307 308 310 309 308 312 306 308 309 309 307 310 307 312 311 312 311 308 307 306 306
294 297 296 291 291 291 295 302 302 289 290 300 300 296 295 297 301 301 301 301 302 306 306 307 306 308 309 308 304 308 311 313 309 305 307 312 312 313 312 311 311 309 308 307 305
293 297 295 291 292 293 298 296 290 291 293 297 296 295 296 296 296 297 301 301 302 306 305 306 306 307 306 308 308 310 313 317 317 314 316 309 310 313 310 309 309 309 308 306 303
291 297 297 292 295 296 297 291 289 287 294 296 295 295 298 294 294 294 295 294 301 303 304 309 306 306 306 305 310 309 314 317 317 316 313 306 314 312 308 306 307 306 307 305 301
292 295 293 293 295 298 292 291 293 296 294 294 294 296 294 294 294 292 293 295 301 298 300 302 306 303 304 303 306 311 312 309 313 312 316 313 310 310 307 305 302 302 302 302 300
292 292 292 293 293 295 291 295 294 293 293 293 295 294 293 294 292 292 292 296 296 294 294 299 299 302 304 304 305 308 309 311 312 314 316 316 311 313 307 304 303 301 301 300 299
291 290 291 292 293 289 286 282 293 291 290 294 292 293 293 291 291 290 291 294 293 292 292 296 296 299 303 304 305 305 307 309 311 312 316 319 310 304 302 302 302 301 299 300 299
290 284 292 291 286 275 281 287 290 290 289 291 290 290 291 290 291 292 292 292 290 291 292 294 298 297 299 297 300 303 304 306 309 309 311 313 313 306 308 306 305 304 298 299 299
286 283 291 290 282 277 283 289 290 288 289 289 289 289 289 289 284 290 289 289 290 290 292 295 290 293 292 292 293 296 295 299 301 308 309 311 314 306 306 305 305 304 304 298 298
285 284 283 283 284 287 281 284 285 289 289 289 289 290 289 288 289 283 288 289 289 289 292 292 292 291 291 293 292 293 296 294 294 302 305 307 307 306 306 304 304 303 302 302 297
282 282 284 279 282 287 288 286 285 285 288 288 288 289 289 283 288 284 285 289 289 289 290 289 283 289 289 291 290 294 292 292 292 294 302 302 301 301 300 301 302 303 304 304 301
282 283 284 282 288 288 287 286 289 288 288 287 288 288 288 282 288 287 288 289 289 288 288 289 287 286 287 288 291 291 291 290 293 298 300 302 302 295 295 295 300 303 304 302 301
290 290 289 286 286 284 286 288 289 289 289 289 288 288 289 289 288 288 288 289 289 289 288 287 289 280 287 287 285 285 288 292 294 294 298 299 296 295 295 295 296 296 296 298 299
Wind_Speed
22 20 20 21 20 19 18 19 18 19 19 18 17 19 20 19 20 5 7 6 5 6 7 4 4 4 3 2 3 3 1 3 4 5 5 1 2 1 1 5 2 1 7 6 31
21 22 21 20 20 22 22 20 20 20 19 19 19 18 19 20 14 8 6 7 7 6 4 1 2 2 2 3 2 3 3 7 3 2 3 2 2 3 3 3 2 2 4 20 32
23 22 22 23 23 22 23 22 22 21 21 19 19 18 18 16 4 1 2 4 7 6 3 3 3 2 3 3 4 5 5 4 2 1 4 3 1 3 6 4 6 8 8 11 15
25 25 24 24 25 25 25 22 21 22 21 22 21 17 16 4 3 2 2 2 3 3 2 2 3 3 3 5 5 4 8 5 4 1 2 3 6 4 5 5 4 11 15 13 13
26 27 27 26 26 26 26 24 23 22 21 22 21 12 7 3 6 3 4 5 2 1 3 2 2 2 4 3 3 5 4 3 3 3 4 1 5 5 8 7 5 5 8 13 15
28 28 29 30 27 25 26 27 27 24 21 19 13 4 1 3 4 6 6 5 4 3 2 3 2 1 4 4 3 3 3 6 5 5 4 5 2 4 9 10 8 7 11 11 12
28 29 29 29 26 29 28 24 22 20 16 12 6 1 0 7 7 10 9 7 6 4 4 2 3 2 2 4 4 3 6 6 6 5 6 4 6 12 11 2 10 10 9 11 13
30 29 29 28 27 30 30 27 18 14 14 10 5 2 3 5 7 10 10 8 5 3 4 7 3 3 2 4 4 2 1 2 4 9 5 8 12 9 9 9 13 9 9 9 9
31 32 29 26 26 29 32 22 14 6 22 7 6 4 5 8 11 15 11 9 8 4 2 2 1 3 1 1 4 2 5 6 6 8 4 6 7 6 4 7 12 9 9 9 9
33 32 30 23 22 29 31 14 6 8 20 6 12 3 6 8 14 17 12 10 4 5 4 1 2 1 2 3 8 8 6 5 6 6 4 5 12 12 7 4 9 9 9 9 9
34 31 29 19 19 27 28 9 9 8 13 2 7 3 7 21 8 15 12 11 5 3 4 2 2 6 10 12 6 4 5 6 3 3 5 8 14 16 11 6 8 9 9 9 14
34 31 29 13 17 20 30 9 10 5 7 7 7 5 10 11 3 9 14 7 5 5 7 5 6 10 6 7 8 12 10 10 7 3 6 7 14 11 12 10 14 14 12 12 7
33 28 27 13 7 22 20 20 12 10 2 7 4 3 4 7 5 7 5 1 2 6 7 8 8 4 3 8 10 11 13 5 11 2 4 4 16 10 10 13 10 14 15 14 15
32 25 27 18 4 19 4 27 11 5 4 7 6 6 12 5 3 3 4 1 3 3 6 8 6 10 15 11 5 12 7 12 11 3 7 3 12 9 6 17 13 18 16 17 16
29 21 23 15 8 6 23 26 8 3 5 9 4 5 11 5 7 10 6 5 4 3 4 7 9 14 12 6 7 7 7 6 6 5 3 6 1 5 6 12 10 13 16 18 18
28 16 19 15 12 24 26 12 4 6 3 7 6 10 11 8 8 10 9 5 4 4 7 14 4 4 6 11 3 4 1 9 6 2 4 24 11 21 11 9 6 8 9 13 12
26 10 15 17 18 29 20 3 5 6 5 8 6 11 6 10 8 11 10 7 5 6 7 14 9 5 4 5 3 3 2 2 5 4 7 4 8 21 4 4 6 9 10 9 7
24 6 9 19 26 21 8 6 8 4 3 4 7 11 4 13 6 13 9 9 10 12 9 7 7 8 7 3 2 2 4 5 6 4 5 3 8 12 4 9 12 11 10 5 8
22 8 13 28 24 16 5 6 4 2 4 5 8 5 5 7 4 10 6 3 11 18 10 6 6 14 12 4 6 1 5 4 6 3 3 4 6 10 6 7 9 8 6 6 6
14 8 15 28 19 8 5 5 3 4 5 2 3 4 4 5 6 6 4 3 7 13 11 5 13 5 5 4 5 3 3 3 3 4 6 3 4 5 15 16 14 10 5 1 4
6 4 22 24 10 6 4 4 3 4 7 4 4 4 3 5 4 2 5 6 12 14 12 9 5 11 6 2 1 3 3 5 4 4 4 2 2 6 7 11 18 12 7 2 4
6 3 21 22 4 2 2 1 4 4 3 2 3 2 2 6 4 3 2 3 15 9 6 5 6 8 16 18 11 6 11 11 5 4 4 5 7 4 11 15 19 20 11 2 2
2 2 11 11 4 3 4 2 1 2 2 2 2 0 1 3 4 3 4 7 7 12 6 8 4 6 12 6 8 5 11 15 19 3 8 7 2 3 9 16 18 20 22 10 3
3 3 4 6 1 4 2 3 3 3 3 3 3 1 1 3 5 5 7 6 9 11 20 2 2 6 8 12 9 17 16 15 10 7 6 7 11 9 14 14 12 17 17 17 6
3 2 4 3 3 1 1 4 2 2 2 3 1 3 5 3 6 5 6 12 8 12 3 0 6 11 14 12 15 17 18 21 19 16 8 10 15 18 18 16 14 8 4 10 5
2 3 3 2 2 2 2 3 5 4 4 4 6 9 5 6 9 15 10 9 10 6 8 3 8 8 14 17 13 19 15 21 17 7 9 12 11 16 16 20 16 13 6 9 7
3 2 3 4 2 4 4 5 5 2 6 8 5 5 8 13 9 10 10 13 14 18 18 6 7 1 15 9 5 6 8 10 13 5 7 5 8 15 20 22 15 17 18 15 16
Wind_Direction
17 14 9 3 359 355 355 352 351 349 342 339 340 341 336 326 319 294 221 234 236 265 306 306 286 247 225 251 218 111 56 245 251 171 250 289 159 334 245 119 69 352 162 188 164
7 4 1 356 352 350 348 345 342 340 339 336 334 335 334 327 319 246 238 233 249 281 281 50 311 229 269 224 218 135 181 226 238 268 238 279 179 173 129 124 51 42 31 144 159
5 3 359 355 347 343 340 338 336 333 330 331 330 331 331 328 319 278 264 236 255 266 256 280 268 269 259 182 205 184 214 232 260 274 325 308 290 310 131 239 202 176 154 146 163
6 5 3 357 352 346 344 339 334 329 328 326 326 328 327 321 295 339 343 326 290 267 230 232 209 192 241 223 206 205 229 229 274 213 297 267 319 273 188 225 185 180 162 164 169
6 4 1 357 352 350 347 344 340 334 328 325 322 325 331 313 262 326 323 326 318 262 241 178 195 210 238 268 274 229 255 281 314 229 248 287 259 266 267 222 193 164 189 183 181
359 1 358 355 355 355 350 344 338 333 327 326 325 318 287 256 334 339 337 327 315 301 285 221 207 139 274 259 222 332 292 281 283 239 251 227 235 138 249 224 220 187 199 198 192
357 358 355 357 355 352 349 342 338 337 343 354 356 10 45 255 341 332 329 323 313 302 321 336 318 263 340 280 331 324 310 314 239 223 239 175 274 227 234 206 234 207 213 206 200
357 357 354 357 353 352 351 342 345 358 9 3 24 90 256 336 341 344 334 318 312 295 273 298 314 282 231 303 333 299 203 285 270 177 230 142 262 253 237 201 231 211 210 200 223
360 358 357 1 357 355 353 348 2 52 9 20 50 46 333 8 9 345 338 320 314 309 294 315 351 213 1 137 347 309 254 224 299 197 138 179 251 259 300 209 227 216 209 213 225
0 359 358 4 4 4 356 9 32 45 17 61 29 33 22 317 337 331 338 327 321 326 337 98 76 256 32 137 224 209 227 241 222 210 177 207 248 264 264 226 233 224 219 216 222
359 1 2 7 11 9 9 29 16 2 17 63 285 223 263 321 23 359 350 335 336 353 301 290 156 213 216 224 243 251 244 246 246 218 193 235 244 250 261 256 252 243 235 229 222
4 6 5 15 30 16 45 61 26 326 319 298 261 247 265 314 313 349 7 26 360 313 336 324 264 248 234 248 260 268 273 262 284 273 204 268 262 251 244 236 228 234 235 232 225
0 9 7 7 354 21 42 25 6 5 247 298 273 355 315 336 332 311 5 333 330 326 302 250 269 355 198 255 255 252 248 259 247 287 255 339 279 246 248 238 232 231 227 228 219
357 8 11 6 19 356 39 348 358 4 70 338 341 6 357 311 311 282 332 36 356 281 334 280 332 316 288 265 224 261 215 238 240 151 245 164 274 220 216 236 225 234 223 224 219
355 0 10 15 349 23 325 337 352 116 56 308 1 358 325 358 290 8 353 347 280 270 74 259 295 304 310 297 258 258 327 272 229 198 94 224 309 254 196 239 236 235 227 223 221
352 359 5 11 349 341 338 343 100 42 268 326 2 345 355 5 356 343 2 349 271 294 228 258 280 264 231 234 246 307 262 314 347 82 207 238 195 273 234 232 236 240 234 225 215
352 359 13 2 335 335 341 55 37 95 318 330 342 336 352 348 342 8 357 12 349 325 340 303 276 271 267 270 253 143 102 251 222 206 238 163 177 240 255 286 263 260 263 242 198
352 345 358 354 347 344 352 53 72 250 309 360 340 313 52 21 355 348 7 351 28 15 313 328 329 358 345 350 160 279 262 228 244 206 241 139 211 242 223 261 264 248 252 264 194
350 6 357 351 349 347 65 54 168 174 311 317 322 18 347 21 335 2 339 329 33 26 357 301 277 325 288 249 147 97 248 321 298 242 252 198 277 298 2 327 319 308 300 261 188
346 341 360 348 349 14 67 110 125 30 306 342 18 25 345 357 20 5 309 41 9 17 356 311 303 296 296 332 246 199 146 299 263 251 254 241 280 264 358 337 325 304 287 134 106
10 32 356 357 6 45 95 206 50 9 22 357 15 340 336 355 332 255 273 335 29 354 353 296 235 292 324 257 284 319 280 232 244 258 302 295 237 350 357 352 348 322 314 303 107
6 28 357 358 48 20 77 181 347 5 349 339 58 8 350 336 303 300 275 314 346 356 334 278 301 289 279 281 297 271 266 259 265 251 286 289 261 341 19 11 7 4 336 295 162
28 270 354 14 81 344 319 350 317 344 322 10 339 235 60 316 331 295 346 302 319 347 343 336 320 317 330 1 31 348 322 343 331 253 240 243 300 311 33 14 2 352 349 328 297
53 13 335 38 121 116 99 286 310 266 252 216 262 253 22 273 236 273 289 301 322 293 306 357 274 279 276 283 299 296 319 318 318 297 328 277 304 319 330 332 356 332 339 332 4
43 260 179 308 330 112 164 194 228 303 245 204 288 200 287 267 285 248 289 299 292 294 307 280 234 285 268 260 285 272 295 311 303 270 264 296 308 323 323 310 304 256 238 305 354
111 88 359 240 267 162 246 248 210 253 197 247 239 270 258 201 254 290 290 290 288 283 280 217 273 271 286 286 265 283 285 289 290 300 283 286 274 351 339 355 329 297 206 275 210
189 156 130 255 206 114 224 212 219 195 262 254 233 275 268 263 270 266 270 272 261 276 273 266 261 253 272 286 309 294 245 257 276 28 321 356 353 350 352 342 349 41 19 4 344